Tracking 19794 objects as of 21-Jul-2019
HD Live streaming from Space Station
objects crossing your sky now

FENGYUN 1C DEB

Track FENGYUN 1C DEB now!
10-day predictions


NORAD ID: 32448
Int'l Code: 1999-025DBL
Perigee: 735.7 km
Apogee: 768.1 km
Inclination: 99.0 °
Period: 99.7 minutes
Semi major axis: 7122 km
RCS: 0.0149 m2 (small)
Launch date: May 10, 1999
Source: People's Republic of China (PRC)
Launch site: Taiyaun Space Center, China (TSC)

Note: This is SATELLITE DEBRIS
aabbcc
Your satellite tracking list
Your tracking list is empty




NASA's NSSDC Master Catalog

Two Line Element Set (TLE):
1 32448U 99025DBL 19200.24140255  .00001911  00000-0  56929-3 0  9997
2 32448  98.9613 351.2279 0022726 221.5245 261.1528 14.44176873613109
Source of the keplerian elements: AFSPC